Weather History for Pampa, TX

Change the Weather History Date:

Thursday, October 4, 2012

  Actual Average Record
Temperature  
Mean Temperature 55 °F -  
Max Temperature 62 °F 79 °F 94 °F (1967)
Min Temperature 48 °F 50 °F 41 °F (1968)
Degree Days  
Heating Degree Days 10    
Growing Degree Days 5 (Base 50)    
Moisture  
Dew Point 38 °F    
Average Humidity 55    
Maximum Humidity 82    
Minimum Humidity 39    
Precipitation  
Precipitation 0.00 in - - ()
Sea Level Pressure  
Sea Level Pressure 30.19 in    
Wind  
Wind Speed 18 mph (NE)    
Max Wind Speed 33 mph    
Max Gust Speed 43 mph    
Visibility 10 miles    
Events      
Averages and records for this station are not official NWS values.
T = Trace of Precipitation, MM = Missing Value Source: NWS Daily Summary

Daily Weather History Graph

Daily Weather History Graph

Search for Another Location

Airport:

Trip Planner

Search our weather history database for the weather conditions in past years. The results will help you decide how hot, cold, wet, or windy it might be!

Date:

Astronomy

Oct. 04, 2012 Rise Set
Actual Time 7:41 AM CDT 7:22 PM CDT
Civil Twilight 7:16 AM CDT 7:48 PM CDT
Nautical Twilight 6:46 AM CDT 8:17 PM CDT
Astronomical Twilight 6:17 AM CDT 8:47 PM CDT
Moon 10:09 PM CDT (10/4) 11:51 AM CDT (10/4)
Length of Visible Light 12h 31m
Length of Day
11h 40m
Waning Gibbous, 82% of the Moon is Illuminated
Oct 4
Waning Gibbous
Oct 8
Last Quarter
Oct 15
New
Oct 21
First Quarter
Oct 29
Full

Hourly Weather History & Observations

Time (CDT) Temp. Dew Point Humidity Pressure Visibility Wind Dir Wind Speed Gust Speed Precip Events Conditions
12:35 AM 62.6 °F 51.8 °F 68% 29.95 in 10.0 mi SSE 19.6 mph - N/A   Clear
12:55 AM 62.6 °F 51.8 °F 68% 29.95 in 10.0 mi South 18.4 mph 23.0 mph N/A   Clear
1:15 AM 62.6 °F 51.8 °F 68% 29.95 in 10.0 mi South 18.4 mph - N/A   Clear
1:35 AM 60.8 °F 51.8 °F 72% 29.95 in 10.0 mi South 18.4 mph 24.2 mph N/A   Clear
1:55 AM 60.8 °F 51.8 °F 72% 29.95 in 10.0 mi South 18.4 mph 24.2 mph N/A   Clear
2:15 AM 60.8 °F 51.8 °F 72% 29.95 in 10.0 mi South 16.1 mph - N/A   Clear
2:35 AM 60.8 °F 51.8 °F 72% 29.95 in 10.0 mi South 16.1 mph 21.9 mph N/A   Clear
2:55 AM 60.8 °F 51.8 °F 72% 29.95 in 10.0 mi South 17.3 mph - N/A   Clear
3:15 AM 60.8 °F 51.8 °F 72% 30.05 in 10.0 mi NNW 23.0 mph 29.9 mph N/A   Clear
3:35 AM 62.6 °F 51.8 °F 68% 30.07 in 10.0 mi NW 16.1 mph 32.2 mph N/A   Scattered Clouds
3:55 AM 60.8 °F 51.8 °F 72% 30.06 in 10.0 mi North 9.2 mph - N/A   Scattered Clouds
4:15 AM 57.2 °F 50.0 °F 77% 30.06 in 10.0 mi NE 3.5 mph - N/A   Clear
4:35 AM 55.4 °F 50.0 °F 82% 30.07 in 10.0 mi North 32.2 mph 39.1 mph N/A   Clear
4:55 AM 53.6 °F 41.0 °F 62% 30.09 in 10.0 mi North 33.4 mph 42.6 mph N/A   Clear
5:15 AM 51.8 °F 39.2 °F 62% 30.12 in 10.0 mi North 27.6 mph 38.0 mph N/A   Clear
5:35 AM 51.8 °F 37.4 °F 58% 30.14 in 10.0 mi North 26.5 mph 36.8 mph N/A   Scattered Clouds
5:55 AM 51.8 °F 37.4 °F 58% 30.16 in 10.0 mi NNE 25.3 mph 34.5 mph N/A   Overcast
6:15 AM 50.0 °F 37.4 °F 62% 30.18 in 10.0 mi North 24.2 mph 34.5 mph N/A   Overcast
6:35 AM 50.0 °F 35.6 °F 58% 30.19 in 10.0 mi North 25.3 mph 36.8 mph N/A   Overcast
6:55 AM 50.0 °F 35.6 °F 58% 30.20 in 10.0 mi NNE 20.7 mph 33.4 mph N/A   Overcast
7:15 AM 50.0 °F 37.4 °F 62% 30.21 in 10.0 mi NNE 27.6 mph 33.4 mph N/A   Overcast
7:35 AM 50.0 °F 35.6 °F 58% 30.23 in 10.0 mi NNE 20.7 mph 29.9 mph N/A   Overcast
7:55 AM 50.0 °F 35.6 °F 58% 30.23 in 10.0 mi NNE 23.0 mph 32.2 mph N/A   Overcast
8:15 AM 48.2 °F 33.8 °F 58% 30.23 in 10.0 mi NNE 21.9 mph 32.2 mph N/A   Overcast
8:35 AM 50.0 °F 35.6 °F 58% 30.25 in 10.0 mi North 18.4 mph 28.8 mph N/A   Overcast
8:55 AM 48.2 °F 33.8 °F 58% 30.26 in 10.0 mi North 24.2 mph 34.5 mph N/A   Overcast
9:15 AM 48.2 °F 32.0 °F 54% 30.27 in 10.0 mi North 21.9 mph 31.1 mph N/A   Overcast
9:35 AM 48.2 °F 32.0 °F 54% 30.28 in 10.0 mi NNE 20.7 mph 27.6 mph N/A   Overcast
9:55 AM 48.2 °F 32.0 °F 54% 30.28 in 10.0 mi North 21.9 mph 29.9 mph N/A   Overcast
10:15 AM 48.2 °F 32.0 °F 54% 30.28 in 10.0 mi North 24.2 mph 31.1 mph N/A   Overcast
10:35 AM 48.2 °F 32.0 °F 54% 30.29 in 10.0 mi North 21.9 mph 29.9 mph N/A   Overcast
10:55 AM 50.0 °F 32.0 °F 50% 30.29 in 10.0 mi NNE 21.9 mph 29.9 mph N/A   Overcast
11:15 AM 50.0 °F 32.0 °F 50% 30.30 in 10.0 mi North 23.0 mph 33.4 mph N/A   Overcast
11:35 AM 50.0 °F 32.0 °F 50% 30.29 in 10.0 mi NNE 21.9 mph 27.6 mph N/A   Overcast
11:55 AM 50.0 °F 32.0 °F 50% 30.30 in 10.0 mi NNE 18.4 mph 25.3 mph N/A   Overcast
12:15 PM 50.0 °F 32.0 °F 50% 30.30 in 10.0 mi NNE 21.9 mph 28.8 mph N/A   Overcast
12:35 PM 51.8 °F 32.0 °F 47% 30.29 in 10.0 mi NNE 23.0 mph 28.8 mph N/A   Overcast
12:55 PM 51.8 °F 32.0 °F 47% 30.30 in 10.0 mi NNE 18.4 mph 27.6 mph N/A   Overcast
1:15 PM 51.8 °F 32.0 °F 47% 30.30 in 10.0 mi NNE 15.0 mph 24.2 mph N/A   Overcast
1:55 PM 53.6 °F 32.0 °F 44% 30.28 in 10.0 mi NNE 13.8 mph - N/A   Overcast
2:15 PM 55.4 °F 32.0 °F 41% 30.26 in 10.0 mi NNE 17.3 mph - N/A   Overcast
2:35 PM 55.4 °F 32.0 °F 41% 30.25 in 10.0 mi NNE 15.0 mph 20.7 mph N/A   Overcast
2:55 PM 57.2 °F 33.8 °F 41% 30.24 in 10.0 mi NNE 13.8 mph 19.6 mph N/A   Overcast
3:15 PM 57.2 °F 33.8 °F 41% 30.23 in 10.0 mi NE 15.0 mph - N/A   Overcast
3:35 PM 59.0 °F 33.8 °F 39% 30.23 in 10.0 mi NE 13.8 mph 19.6 mph N/A   Mostly Cloudy
3:55 PM 59.0 °F 35.6 °F 42% 30.23 in 10.0 mi NE 10.4 mph - N/A   Mostly Cloudy
4:15 PM 59.0 °F 35.6 °F 42% 30.23 in 10.0 mi ENE 10.4 mph - N/A   Mostly Cloudy
4:35 PM 59.0 °F 35.6 °F 42% 30.22 in 10.0 mi ENE 11.5 mph - N/A   Overcast
4:55 PM 57.2 °F 35.6 °F 44% 30.22 in 10.0 mi NNE 8.1 mph - N/A   Overcast
5:35 PM 57.2 °F 35.6 °F 44% 30.21 in 10.0 mi East 11.5 mph - N/A   Overcast
5:55 PM 55.4 °F 35.6 °F 47% 30.21 in 10.0 mi NE 9.2 mph - N/A   Overcast
6:15 PM 55.4 °F 35.6 °F 47% 30.21 in 10.0 mi ENE 10.4 mph - N/A   Overcast
6:35 PM 55.4 °F 35.6 °F 47% 30.22 in 10.0 mi NE 9.2 mph - N/A   Overcast
6:55 PM 55.4 °F 35.6 °F 47% 30.22 in 10.0 mi ENE 8.1 mph - N/A   Overcast
7:15 PM 55.4 °F 35.6 °F 47% 30.22 in 10.0 mi ENE 8.1 mph - N/A   Overcast
7:35 PM 55.4 °F 35.6 °F 47% 30.21 in 10.0 mi ENE 8.1 mph - N/A   Overcast
8:15 PM 55.4 °F 37.4 °F 51% 30.22 in 10.0 mi East 5.8 mph - N/A   Overcast
8:35 PM 55.4 °F 37.4 °F 51% 30.22 in 10.0 mi East 5.8 mph - N/A   Overcast
8:55 PM 53.6 °F 37.4 °F 54% 30.21 in 10.0 mi East 8.1 mph - N/A   Overcast
9:15 PM 53.6 °F 37.4 °F 54% 30.22 in 10.0 mi East 8.1 mph - N/A   Overcast
9:35 PM 53.6 °F 37.4 °F 54% 30.22 in 10.0 mi East 8.1 mph - N/A   Overcast
9:55 PM 53.6 °F 37.4 °F 54% 30.22 in 10.0 mi East 5.8 mph - N/A   Overcast
10:15 PM 53.6 °F 37.4 °F 54% 30.22 in 10.0 mi East 8.1 mph - N/A   Overcast
10:35 PM 53.6 °F 37.4 °F 54% 30.23 in 10.0 mi East 5.8 mph - N/A   Overcast
10:55 PM 53.6 °F 37.4 °F 54% 30.23 in 10.0 mi East 4.6 mph - N/A   Overcast
11:15 PM 53.6 °F 37.4 °F 54% 30.24 in 10.0 mi East 5.8 mph - N/A   Overcast
11:35 PM 53.6 °F 39.2 °F 58% 30.24 in 10.0 mi East 4.6 mph - N/A   Overcast
11:55 PM 53.6 °F 41.0 °F 62% 30.24 in 10.0 mi East 6.9 mph - N/A   Overcast